TimeCDT,TemperatureF,Dew PointF,Humidity,Sea Level PressureIn,VisibilityMPH,Wind Direction,Wind SpeedMPH,Gust SpeedMPH,PrecipitationIn,Events,Conditions,WindDirDegrees,DateUTC
12:15 AM,89.1,66.4,47,29.90,10.0,SSE,17.3,21.9,N/A,,Clear,160,2013-06-26 05:15:00
12:35 AM,87.1,65.5,48,29.91,10.0,South,15.0,-,N/A,,Clear,170,2013-06-26 05:35:00
12:55 AM,86.9,66.0,50,29.91,10.0,South,19.6,29.9,N/A,,Clear,170,2013-06-26 05:55:00
1:15 AM,84.7,64.4,50,29.91,10.0,SSE,16.1,27.6,N/A,,Clear,160,2013-06-26 06:15:00
1:35 AM,83.7,63.9,51,29.91,10.0,South,16.1,23.0,N/A,,Clear,170,2013-06-26 06:35:00
1:55 AM,83.3,63.5,51,29.92,10.0,South,13.8,19.6,N/A,,Clear,180,2013-06-26 06:55:00
2:15 AM,82.8,63.5,52,29.93,10.0,South,10.4,-,N/A,,Clear,180,2013-06-26 07:15:00
2:35 AM,82.2,63.9,54,29.92,10.0,South,11.5,-,N/A,,Clear,180,2013-06-26 07:35:00
2:55 AM,82.0,64.2,55,29.92,10.0,South,11.5,-,N/A,,Clear,180,2013-06-26 07:55:00
3:15 AM,81.5,64.2,56,29.91,10.0,South,10.4,-,N/A,,Clear,180,2013-06-26 08:15:00
3:35 AM,80.8,64.0,57,29.91,10.0,South,10.4,-,N/A,,Clear,180,2013-06-26 08:35:00
3:55 AM,80.6,64.4,58,29.91,10.0,South,8.1,-,N/A,,Clear,180,2013-06-26 08:55:00
4:15 AM,79.7,64.4,59,29.91,10.0,South,8.1,-,N/A,,Clear,190,2013-06-26 09:15:00
4:35 AM,79.7,65.1,61,29.91,10.0,South,8.1,-,N/A,,Clear,180,2013-06-26 09:35:00
4:55 AM,79.2,65.5,63,29.91,10.0,South,9.2,-,N/A,,Clear,180,2013-06-26 09:55:00
5:15 AM,79.7,65.8,62,29.91,10.0,South,11.5,-,N/A,,Clear,170,2013-06-26 10:15:00
5:35 AM,79.7,65.3,61,29.91,10.0,South,10.4,-,N/A,,Clear,170,2013-06-26 10:35:00
5:55 AM,79.3,64.9,61,29.91,10.0,South,13.8,17.3,N/A,,Clear,170,2013-06-26 10:55:00
6:15 AM,77.5,63.5,62,29.92,10.0,South,13.8,-,N/A,,Clear,170,2013-06-26 11:15:00
6:35 AM,77.0,63.1,62,29.93,10.0,SSE,12.7,-,N/A,,Clear,160,2013-06-26 11:35:00
6:55 AM,77.0,63.5,63,29.93,10.0,South,12.7,-,N/A,,Clear,170,2013-06-26 11:55:00
7:15 AM,77.0,63.9,64,29.94,10.0,South,12.7,18.4,N/A,,Clear,170,2013-06-26 12:15:00
7:35 AM,77.0,64.2,65,29.94,10.0,South,13.8,19.6,N/A,,Clear,170,2013-06-26 12:35:00
7:55 AM,77.0,64.8,66,29.94,10.0,South,13.8,-,N/A,,Clear,180,2013-06-26 12:55:00
8:15 AM,77.0,65.3,67,29.95,10.0,South,12.7,18.4,N/A,,Clear,180,2013-06-26 13:15:00
8:35 AM,79.2,66.6,65,29.95,10.0,South,17.3,-,N/A,,Clear,190,2013-06-26 13:35:00
8:55 AM,79.7,66.7,64,29.95,10.0,South,19.6,23.0,N/A,,Clear,180,2013-06-26 13:55:00
9:15 AM,80.1,66.6,63,29.95,10.0,South,15.0,21.9,N/A,,Clear,180,2013-06-26 14:15:00
9:55 AM,81.9,66.7,60,29.94,10.0,South,17.3,24.2,N/A,,Clear,190,2013-06-26 14:55:00
10:15 AM,82.8,66.7,58,29.94,10.0,South,17.3,24.2,N/A,,Clear,190,2013-06-26 15:15:00
10:35 AM,84.0,67.3,57,29.94,10.0,South,16.1,-,N/A,,Clear,190,2013-06-26 15:35:00
10:55 AM,87.1,69.1,55,29.93,10.0,South,17.3,20.7,N/A,,Clear,180,2013-06-26 15:55:00
11:15 AM,89.6,70.2,53,29.94,10.0,South,13.8,21.9,N/A,,Clear,190,2013-06-26 16:15:00
11:35 AM,89.6,69.1,51,29.94,10.0,South,15.0,-,N/A,,Clear,180,2013-06-26 16:35:00
11:55 AM,90.1,68.4,49,29.95,10.0,South,12.7,-,N/A,,Clear,190,2013-06-26 16:55:00
12:15 PM,92.3,68.7,46,29.95,10.0,SSW,12.7,17.3,N/A,,Clear,200,2013-06-26 17:15:00
12:35 PM,94.1,69.1,44,29.95,10.0,SSW,12.7,-,N/A,,Clear,210,2013-06-26 17:35:00
12:55 PM,94.6,67.6,41,29.95,10.0,SSW,11.5,18.4,N/A,,Clear,200,2013-06-26 17:55:00
1:15 PM,94.6,66.7,40,29.95,10.0,SSW,10.4,-,N/A,,Clear,200,2013-06-26 18:15:00
1:35 PM,95.7,66.9,39,29.94,10.0,South,11.5,16.1,N/A,,Clear,170,2013-06-26 18:35:00
1:55 PM,97.2,66.2,36,29.94,10.0,South,10.4,-,N/A,,Clear,180,2013-06-26 18:55:00
2:15 PM,97.7,66.0,35,29.93,10.0,SSE,8.1,-,N/A,,Clear,160,2013-06-26 19:15:00
2:35 PM,98.4,65.8,34,29.93,10.0,South,9.2,19.6,N/A,,Clear,190,2013-06-26 19:35:00
2:55 PM,99.0,67.8,36,29.92,10.0,SSE,11.5,19.6,N/A,,Clear,150,2013-06-26 19:55:00
3:15 PM,99.5,68.0,36,29.91,10.0,South,11.5,18.4,N/A,,Clear,170,2013-06-26 20:15:00
3:35 PM,99.7,67.5,35,29.91,10.0,South,8.1,23.0,N/A,,Clear,180,2013-06-26 20:35:00
3:55 PM,99.7,67.1,34,29.91,10.0,South,12.7,19.6,N/A,,Clear,180,2013-06-26 20:55:00
4:15 PM,99.9,66.2,33,29.90,10.0,SSE,10.4,18.4,N/A,,Clear,160,2013-06-26 21:15:00
4:35 PM,100.0,65.3,32,29.90,10.0,SSE,9.2,19.6,N/A,,Clear,150,2013-06-26 21:35:00
4:55 PM,100.6,65.1,31,29.89,10.0,SE,13.8,19.6,N/A,,Clear,140,2013-06-26 21:55:00
5:15 PM,101.1,64.9,31,29.89,10.0,SSE,13.8,19.6,N/A,,Clear,150,2013-06-26 22:15:00
5:35 PM,101.7,64.6,30,29.88,10.0,ESE,16.1,-,N/A,,Clear,120,2013-06-26 22:35:00
5:55 PM,101.1,64.4,30,29.88,10.0,SE,11.5,-,N/A,,Clear,130,2013-06-26 22:55:00
6:15 PM,100.9,63.9,30,29.89,10.0,SE,13.8,-,N/A,,Clear,140,2013-06-26 23:15:00
6:35 PM,100.9,63.5,29,29.89,10.0,SE,12.7,19.6,N/A,,Clear,140,2013-06-26 23:35:00
6:55 PM,100.9,63.5,29,29.88,10.0,SE,12.7,20.7,N/A,,Clear,140,2013-06-26 23:55:00
7:15 PM,100.2,63.1,30,29.88,10.0,SE,17.3,20.7,N/A,,Clear,140,2013-06-27 00:15:00
7:35 PM,99.7,62.8,30,29.88,10.0,SE,16.1,-,N/A,,Clear,130,2013-06-27 00:35:00
7:55 PM,99.7,63.1,30,29.88,10.0,SE,16.1,21.9,N/A,,Clear,140,2013-06-27 00:55:00
8:15 PM,99.0,62.4,30,29.89,10.0,SE,16.1,-,N/A,,Clear,130,2013-06-27 01:15:00
8:35 PM,97.3,61.9,31,29.89,10.0,SE,15.0,19.6,N/A,,Clear,130,2013-06-27 01:35:00
8:55 PM,96.8,62.4,32,29.90,10.0,SE,13.8,18.4,N/A,,Clear,130,2013-06-27 01:55:00
9:15 PM,94.8,61.2,33,29.90,10.0,SE,11.5,-,N/A,,Clear,130,2013-06-27 02:15:00
9:35 PM,94.6,61.0,33,29.91,10.0,SE,13.8,-,N/A,,Clear,130,2013-06-27 02:35:00
9:55 PM,94.6,61.0,33,29.91,10.0,SE,13.8,18.4,N/A,,Clear,130,2013-06-27 02:55:00
10:15 PM,94.5,61.5,33,29.93,10.0,SE,16.1,-,N/A,,Clear,130,2013-06-27 03:15:00
10:35 PM,92.7,59.9,33,29.93,10.0,SE,15.0,23.0,N/A,,Clear,130,2013-06-27 03:35:00
10:55 PM,90.9,61.0,37,29.94,10.0,SE,15.0,20.7,N/A,,Clear,140,2013-06-27 03:55:00
11:15 PM,89.6,62.1,40,29.94,10.0,SE,16.1,20.7,N/A,,Clear,140,2013-06-27 04:15:00
11:35 PM,89.6,63.0,41,29.95,10.0,SSE,16.1,-,N/A,,Clear,150,2013-06-27 04:35:00
11:55 PM,89.6,63.3,41,29.95,10.0,SSE,15.0,-,N/A,,Clear,150,2013-06-27 04:55:00